Weather in Kruglikovo

Russia / Khabarovsk Krai     48°06′17″N   135°07′20″E
temp.,
°C
wind,
m/s
gust,
m/s
humid.,
%
clouds,
%
prec.,
mm/h
press.,
hPa
HPBL,
m
23 october, sat
sat2301:00−1sw34785 0.0 101953
04:00−1sw37795 0.0 1018121
07:00−1sw49845 0.0 1018193
10:00+3wsw58635 0.0 1018377
13:00+9wsw6853100 0.0 1018691
16:00+11w69490 0.0 10161041
19:00+6wsw411675 0.0 1017160
22:00+5wsw511705 0.0 1018199
24 october, sun
sun2401:00+3wsw49780 0.0 1018148
04:00+2sw511790 0.0 1018198
07:00+1sw511800 0.0 1018221
10:00+5sw69600 0.0 1019405
13:00+11wsw69440 0.0 1019958
16:00+12wsw58420 0.0 10181187
19:00+7sw36576 0.0 102075
22:00+5ssw35660 0.0 102163
25 october, mon
mon2501:00+3ssw23710 0.0 102130
04:00+2s22770 0.0 102129
07:00+2s22820 0.0 102126
10:00+6ssw37630 0.0 1021331
13:00+11sw57460 0.0 1020899
16:00+13sw58460 0.0 10181271
19:00+7ssw36665 0.0 101988
22:00+5s35755 0.0 101871
26 october, tue
tue2601:00+4s227832 0.0 101819
04:00+3sse228088 0.0 101814
07:00+3sse228248 0.0 101813
10:00+7s23655 0.0 1017197
13:00+12ssw35485 0.0 1016773
16:00+14sw464457 0.0 10141247
19:00+9s246197 0.0 101465
22:00+8sse346899 0.0 101391
27 october, wed
wed2701:00+6sse3481100 0.0 101263
04:00+5s3589100 0.3 101195
07:00+5s2488100 0.0 101078
10:00+8ssw497799 0.1 1010560
13:00+11sw7952100 0.0 10091361
16:00+11wsw5749100 0.0 10091601
19:00+7wsw3760100 0.0 1010142
22:00+7wsw246599 0.0 101182